Showing default

SECOR 1B, 729

Orbit data source: Space-Track

SECOR 1B, 729 is an American payload satellite in LEO that was launched on Sat, 11 Jan 1964 UTC via a THOR SLV-2A AGENA D launch vehicle from the Air Force Western Test Range (AFWTR). Payload-class satellites include a variety of spacecraft equipped with specific instruments for various scientific and technological missions. These include communications satellites like Starlink; space stations such as the ISS; scientific satellites like the Hubble; Earth observation satellites from companies like Planet Labs, Umbra, and HawkEye 360; GPS; miniature CubeSats for education and research; and military/defense satellites.

Loading next visibility...
Identifier
729, 1964-001C
Orbit
LEO
Country
Flag of USUS
Related business
Manufacturer
ITT
Mission
Defense Geodetic
Bus & Motor
SECOR, Unknown motor
Mass
18 kg wet, 18 kg dry
Launch date (UTC)
1964-01-11 (62 years ago)
Launch vehicle
THOR SLV-2A AGENA D
Launch site
Air Force Western Test Range (AFWTR)
Object type
Payload
Rocket body
Debris
Shape & HBR
Box, 0.2 m
Radar Cross Section
0.104 m², Medium (>0.1 m² and < 1m²)

Expand to show TLE details & history
Last TLE update: 12 hours ago

TLE from 12 hours ago
0 SECOR 1B
1 00729U 64001C   25258.81358676 -.00000004  00000-0  36783-4 0  9991
2 00729  69.9012 161.3889 0011442  63.4005 296.8271 13.95185146138430
Epoch: 2025-09-15T19:31Z
TLE epoch observation values (Epoch: 2025-09-15T19:31:33.896Z)
Latitude
0.00005°
Longitude
-126.51517°
Altitude
909.064 km
Speed
7.4 km/s
True Right ascension
10h 45m 33s
True Declination
0° 00' 00"
Sunlit
Object was in daylight at epoch
Visualization orbit readout
Latitude
Unknown
Longitude
Unknown
Altitude
Unknown
Speed
Unknown
Apparent Right ascension
Unknown
Apparent Declination
Unknown
Sunlit
N/A
Visualization observer readout
Local Sidereal Time
00:25:42
Azimuth
Unknown
Elevation
Unknown
Doppler factor
Unknown
Orbital elements
Apogee altitude
916.907 km
Perigee altitude
900.233 km
Semi-major axis
7,286.707 km
Eccentricity
0.00114
Inclination
69.9012°
RAAN
161.3889°
Arg. of periapsis
63.4005°
True anomaly
296.71002°
Mean anomaly
296.8271°
Eccentric anomaly
296.76857°
Mean motion
3.48936 °/min
Orbital period
103.17 mins
BSTAR
0.000036783
Loading maneuver chart data...
Computing Atmospheric mass density...
Loading historical data...
Loading historical data...
Loading historical data...
Loading historical data...
Loading historical data...
Loading historical data...
Loading historical data...
Other satellites on launch #1 in the year 1964 (1964-01-11 UTC)

Documentation

Showing up to 5 results
|